Onweer radar Meer informatie blitzortung!


Regen radar Meer informatie rain snow radar


Bezoek onze andere website:

Template documentation
and downloads

And another site



15 daagse weersverwachting Lillehammer (NO)

  • Overzicht
  • Per uur
  • 15 dagen
  • Extra
  • Vergelijk
  • Kaarten
  • Dagkaart
  • Meer »
  • Info
  • Statistieken
  • Directe link
    Temp 6h Neerslag Wind  
 03:43     22:57    Daglengte: 19:14 Vandaag
20:00
16°
 
2
 03:43     22:58    Daglengte: 19:15 Morgen
02:00
12°
 
1
08:00
14°
 
1
14:00
19°
 
3
20:00
18°
 
4
 03:43     22:58    Daglengte: 19:15 Dinsdag 18 Jun
02:00
12°
 
2
08:00
13°
 
3
14:00
17°
0.7 mm
4
20:00
17°
3.1 mm
4
 03:43     22:59    Daglengte: 19:16 Woensdag 19 Jun
02:00
11°
 
2
08:00
12°
 
1
14:00
19°
 
3
Locatie info
Region: Oppland
Latitude: 61.1150°N
Longitude: 10.4636°E
210 masl
Postcode: 2609
Temp/Neerslag /Baro Onweer/Dauwpunt
    Temp Baro 1h Neerslag Dauwpunt Wind UV Bewolking  
 03:43     22:57    Daglengte: 19:14 Vandaag
19:00
16°
1012.9 hPa
45%
12.9°
1
Windvlaag: 2.3 m/s
70%
20:00
16°
1012.7 hPa
66%
12.3°
2
Windvlaag: 2.5 m/s
84%
21:00
15°
1012.8 hPa
70%
12.1°
2
Windvlaag: 2.8 m/s
90%
22:00
14°
1012.8 hPa
82%
12.3°
1
Windvlaag: 2.8 m/s
87%
23:00
14°
1012.8 hPa
77%
12.6°
1
Windvlaag: 2.8 m/s
77%
 03:43     22:58    Daglengte: 19:15 Morgen
00:00
14°
1012.9 hPa
75%
12.8°
1
Windvlaag: 2.5 m/s
82%
01:00
13°
1013.1 hPa
70%
12.3°
1
Windvlaag: 2.8 m/s
68%
02:00
12°
1013.1 hPa
68%
12.0°
1
Windvlaag: 2.3 m/s
68%
03:00
12°
1013.0 hPa
28%
11.9°
1
Windvlaag: 2 m/s
60%
04:00
12°
1012.8 hPa
63%
11.9°
1
Windvlaag: 2 m/s
64%
05:00
12°
1012.6 hPa
67%
11.6°
1
Windvlaag: 2.4 m/s
60%
06:00
12°
1012.6 hPa
66%
11.6°
1
Windvlaag: 2.4 m/s
38%
07:00
13°
1012.5 hPa
68%
11.3°
2
Windvlaag: 2.8 m/s
29%
08:00
14°
1012.6 hPa
71%
10.8°
1
Windvlaag: 3.1 m/s
12%
09:00
15°
1012.6 hPa
68%
10.6°
1
Windvlaag: 3.1 m/s
7%
10:00
16°
1012.7 hPa
68%
10.7°
1
Windvlaag: 3.5 m/s
7%
11:00
18°
1012.4 hPa
63%
10.9°
2
Windvlaag: 4.2 m/s
19%
12:00
19°
1012.2 hPa
22%
10.5°
3
Windvlaag: 5.6 m/s
15%
13:00
19°
1012.0 hPa
14%
8.4°
3
Windvlaag: 6.8 m/s
15%
14:00
19°
1012.1 hPa
14%
7.3°
3
Windvlaag: 7.1 m/s
18%
15:00
21°
1011.9 hPa
14%
7.4°
3
Windvlaag: 7.3 m/s
15%
16:00
21°
1011.5 hPa
14%
7.8°
4
Windvlaag: 7.5 m/s
14%
17:00
20°
1011.4 hPa
14%
8.3°
4
Windvlaag: 8.1 m/s
54%
18:00
20°
1011.1 hPa
14%
9.0°
4
Windvlaag: 8.5 m/s
51%
19:00
19°
1011.0 hPa
14%
10.9°
4
Windvlaag: 8.4 m/s
37%
20:00
18°
1010.9 hPa
15%
11.5°
4
Windvlaag: 7.4 m/s
22%
21:00
17°
1011.0 hPa
14%
11.3°
3
Windvlaag: 6.6 m/s
13%
22:00
15°
1011.2 hPa
18%
11.2°
3
Windvlaag: 6.4 m/s
11%
23:00
14°
1011.5 hPa
23%
10.5°
3
Windvlaag: 6.5 m/s
8%
 03:43     22:58    Daglengte: 19:15 Dinsdag 18 Jun
00:00
13°
1011.7 hPa
16%
10.4°
2
Windvlaag: 6.6 m/s
34%
01:00
13°
1012.0 hPa
14%
10.2°
2
Windvlaag: 6.6 m/s
41%
02:00
12°
1012.1 hPa
14%
10.0°
2
Windvlaag: 6.3 m/s
48%
03:00
12°
1012.3 hPa
14%
9.7°
2
Windvlaag: 6.5 m/s
62%
04:00
11°
1012.3 hPa
14%
9.3°
2
Windvlaag: 6.2 m/s
75%
05:00
11°
1012.3 hPa
14%
9.3°
2
Windvlaag: 5.6 m/s
73%
06:00
11°
1012.2 hPa
14%
9.0°
2
Windvlaag: 5.6 m/s
74%
07:00
12°
1012.2 hPa
20%
9.0°
2
Windvlaag: 5.8 m/s
84%
08:00
13°
1012.1 hPa
19%
9.1°
3
Windvlaag: 7 m/s
86%
09:00
14°
1011.9 hPa
62%
9.3°
3
Windvlaag: 7.8 m/s
85%
10:00
15°
1011.8 hPa
64%
9.6°
3
Windvlaag: 8.4 m/s
77%
11:00
16°
1011.6 hPa 0.7 mm
82%
9.3°
3
Windvlaag: 8.1 m/s
80%
12:00
16°
1011.2 hPa
80%
8.9°
3
Windvlaag: 7.7 m/s
82%
13:00
16°
1010.9 hPa
77%
9.5°
4
Windvlaag: 8.7 m/s
81%
14:00
17°
1010.7 hPa
79%
9.6°
4
Windvlaag: 8.3 m/s
76%
15:00
18°
1010.3 hPa
82%
9.5°
4
Windvlaag: 7.7 m/s
76%
16:00
18°
1009.9 hPa 1.0 mm
77%
9.5°
4
Windvlaag: 7.8 m/s
79%
17:00
18°
1009.4 hPa
96%
11.0°
4
Windvlaag: 7.8 m/s
95%
18:00
18°
1008.9 hPa 1.1 mm
100%
11.1°
4
Windvlaag: 7.7 m/s
94%
19:00
18°
1008.5 hPa 1.0 mm
83%
11.4°
4
Windvlaag: 7.7 m/s
59%
20:00
17°
1008.4 hPa
85%
11.5°
4
Windvlaag: 7.7 m/s
62%
21:00
16°
1008.5 hPa
46%
11.6°
3
Windvlaag: 7.5 m/s
53%
22:00
15°
1008.6 hPa
41%
11.7°
2
Windvlaag: 6.2 m/s
17%
23:00
14°
1009.0 hPa
27%
11.3°
2
Windvlaag: 5.3 m/s
16%
 03:43     22:59    Daglengte: 19:16 Woensdag 19 Jun
00:00
13°
1009.2 hPa
30%
10.9°
2
Windvlaag: 4.5 m/s
16%
01:00
12°
1009.4 hPa
26%
10.0°
2
Windvlaag: 4.1 m/s
18%
02:00
11°
1009.6 hPa
21%
9.4°
2
Windvlaag: 3.9 m/s
19%
03:00
10°
Voelt als: 9.2°
1009.8 hPa
21%
7.9°
2
Windvlaag: 4.3 m/s
38%
04:00
Voelt als: 9.0°
1010.0 hPa
21%
7.1°
1
Windvlaag: 3.6 m/s
45%
05:00
Voelt als: 8.8°
1010.2 hPa
21%
7.0°
2
Windvlaag: 2.6 m/s
50%
06:00
10°
Voelt als: 9.9°
1010.4 hPa
21%
7.0°
1
Windvlaag: 2.5 m/s
44%
07:00
11°
1010.4 hPa
21%
6.5°
1
Windvlaag: 1.6 m/s
61%
08:00
12°
1010.5 hPa
21%
6.2°
1
Windvlaag: 1.8 m/s
57%
09:00
14°
1010.4 hPa
21%
6.4°
1
Windvlaag: 0.1 m/s
54%
10:00
15°
1010.3 hPa
21%
6.7°
1
Windvlaag: 2.6 m/s
75%
11:00
16°
1010.2 hPa
21%
6.8°
2
Windvlaag: 3.6 m/s
45%
12:00
17°
1010.1 hPa
21%
6.8°
2
Windvlaag: 4.6 m/s
64%
13:00
18°
1009.8 hPa
21%
6.8°
3
Windvlaag: 5.3 m/s
79%
14:00
19°
1009.5 hPa
21%
6.7°
3
Windvlaag: 2.6 m/s
81%
15:00
19°
1009.4 hPa
21%
8.2°
3
Windvlaag: 4.2 m/s
78%
16:00
19°
1009.1 hPa
21%
9.1°
3
Windvlaag: 4.9 m/s
94%
17:00
18°
1008.9 hPa
21%
10.5°
3
Windvlaag: 4.1 m/s
97%
18:00
18°
1008.4 hPa
21%
11.4°
2
Windvlaag: 1.3 m/s
95%
Temp/Neerslag /Baro Onweer/Dauwpunt
    Temp Baro Neerslag Dauwpunt Wind Bewolking  
 03:43     22:57    Daglengte: 19:14 Vandaag
20:00
16°
1012.7 hPa   12.3°
2
84%
23:00
14°
1012.8 hPa   12.6°
1
77%
 03:43     22:58    Daglengte: 19:15 Morgen
02:00
12°
1013.1 hPa   12.0°
1
68%
05:00
12°
1012.6 hPa   11.6°
1
60%
08:00
14°
1012.6 hPa   10.8°
1
12%
11:00
18°
1012.4 hPa   10.9°
2
19%
14:00
19°
1012.1 hPa   7.3°
3
18%
17:00
20°
1011.4 hPa   8.3°
4
54%
20:00
18°
1010.9 hPa   11.5°
4
22%
23:00
14°
1011.5 hPa   10.5°
3
8%
 03:43     22:58    Daglengte: 19:15 Dinsdag 18 Jun
02:00
12°
1012.1 hPa   10.0°
2
48%
05:00
11°
1012.3 hPa   9.3°
2
73%
08:00
13°
1012.1 hPa   9.1°
3
86%
11:00
16°
1011.6 hPa 0.7 mm 9.3°
3
80%
14:00
17°
1010.7 hPa   9.6°
4
76%
17:00
18°
1009.4 hPa 1.0 mm 11.0°
4
95%
20:00
17°
1008.4 hPa 2.1 mm 11.5°
4
62%
23:00
14°
1009.0 hPa   11.3°
2
16%
 03:43     22:59    Daglengte: 19:16 Woensdag 19 Jun
02:00
11°
1009.6 hPa   9.4°
2
19%
05:00
Voelt als: 8.8°
1010.2 hPa   7.0°
2
50%
08:00
12°
1010.5 hPa   6.2°
1
57%
11:00
16°
1010.2 hPa   6.8°
2
45%
14:00
19°
1009.5 hPa   6.7°
3
81%
17:00
18°
1008.9 hPa   10.5°
3
97%
20:00
17°
1007.9 hPa   12.6°
2
88%
23:00
15°
1007.6 hPa 1.4 mm 12.2°
2
92%
 03:43     22:59    Daglengte: 19:16 Donderdag 20 Jun
02:00
14°
1007.1 hPa 1.4 mm 12.0°
2
92%
05:00
14°
1005.4 hPa 1.6 mm 13.0°
2
92%
08:00
14°
1003.7 hPa 3.0 mm 14.2°
2
92%
11:00
16°
1003.1 hPa 7.9 mm 14.9°
3
87%
14:00
18°
1002.5 hPa 8.1 mm 15.6°
4
82%
17:00
18°
1002.6 hPa 8.4 mm 15.1°
3
67%
20:00
18°
1002.6 hPa 9.6 mm 14.6°
2
51%
23:00
16°
1003.9 hPa 10.3 mm 13.8°
2
61%
 03:43     22:59    Daglengte: 19:16 Vrijdag 21 Jun
02:00
13°
1005.1 hPa 10.3 mm 12.9°
2
72%
05:00
14°
1005.8 hPa 10.4 mm 12.6°
2
62%
08:00
14°
1006.5 hPa 10.6 mm 12.3°
2
51%
11:00
16°
1006.3 hPa 11.4 mm 11.8°
3
61%
14:00
18°
1006.1 hPa 12.3 mm 10.2°
4
70%
17:00
17°
1006.4 hPa 12.6 mm 10.1°
4
63%
20:00
16°
1006.6 hPa 12.6 mm 10.1°
3
56%
23:00
13°
1008.4 hPa 12.7 mm 8.5°
3
30%
 03:44     23:00    Daglengte: 19:16 Zaterdag 22 Jun
02:00
10°
Voelt als: 8.7°
1010.2 hPa 12.9 mm 6.9°
2
3%
05:00
11°
1010.7 hPa 13.6 mm 6.9°
3
6%
08:00
13°
1011.3 hPa 13.8 mm 6.6°
3
9%
11:00
15°
1012.0 hPa 16.0 mm 6.3°
4
32%
14:00
17°
1012.8 hPa 18.0 mm 4.1°
4
55%
17:00
17°
1013.9 hPa 20.4 mm 5.1°
4
33%
20:00
16°
1014.9 hPa 21.1 mm 5.5°
3
11%
23:00
12°
1017.2 hPa 21.3 mm 5.8°
3
6%
 03:44     23:00    Daglengte: 19:16 Zondag 23 Jun
02:00
Voelt als: 7.5°
1019.6 hPa 21.3 mm 4.9°
2
1%
05:00
11°
1020.6 hPa 21.3 mm 5.5°
2
5%
08:00
13°
1021.6 hPa 21.3 mm 6.0°
2
9%
11:00
15°
1021.5 hPa 21.3 mm 5.4°
2
47%
14:00
18°
1021.4 hPa 21.4 mm 4.2°
2
85%
17:00
18°
1021.4 hPa   6.4°
2
78%
20:00
17°
1021.4 hPa 42.9 mm 8.5°
2
71%
 03:45     23:00    Daglengte: 19:15 Maandag 24 Jun
02:00
10°
1023.2 hPa 42.9 mm 7.6°
2
56%
08:00
14°
1024.8 hPa 42.9 mm 7.1°
2
42%
14:00
19°
1024.0 hPa 42.9 mm 6.6°
2
87%
20:00
18°
1023.3 hPa 42.9 mm 10.2°
2
64%
 03:45     22:59    Daglengte: 19:14 Dinsdag 25 Jun
02:00
12°
1025.4 hPa 43.2 mm 8.9°
1
76%
08:00
15°
1024.8 hPa 47.3 mm 9.4°
2
85%
14:00
18°
1023.3 hPa 70.6 mm 8.7°
2
84%
20:00
17°
1020.3 hPa 81.1 mm 11.0°
2
76%
 03:46     22:59    Daglengte: 19:13 Woensdag 26 Jun
02:00
12°
1009.0 hPa 81.6 mm 12.3°
2
1%
08:00
13°
1007.6 hPa 82.0 mm 12.4°
3
1%
14:00
17°
1012.7 hPa 1.0 mm 9.7°
1
66%
20:00
17°
1011.8 hPa 0.5 mm 9.3°
1
60%
 03:47     22:59    Daglengte: 19:12 Donderdag 27 Jun
02:00
10°
Voelt als: 9.9°
1013.1 hPa 0.7 mm 8.0°
1
51%
08:00
13°
1012.2 hPa 0.7 mm 8.5°
1
48%
14:00
18°
1010.4 hPa 0.7 mm 8.7°
1
54%
20:00
17°
1009.4 hPa 0.8 mm 9.3°
1
57%
 03:48     22:58    Daglengte: 19:10 Vrijdag 28 Jun
02:00
10°
1010.9 hPa 0.6 mm 8.1°
1
43%
08:00
13°
1010.5 hPa 0.4 mm 8.9°
1
48%
14:00
18°
1008.8 hPa 1.1 mm 8.7°
1
49%
20:00
17°
1007.9 hPa 1.1 mm 9.9°
1
48%
 03:48     22:58    Daglengte: 19:10 Zaterdag 29 Jun
02:00
11°
1009.4 hPa 1.1 mm 8.9°
1
47%
08:00
13°
1008.7 hPa 1.0 mm 9.7°
1
60%
14:00
17°
1007.7 hPa 1.4 mm 10.2°
2
63%
20:00
17°
1007.9 hPa 1.0 mm 10.9°
2
64%
 03:50     22:57    Daglengte: 19:07 Zondag 30 Jun
02:00
11°
1009.8 hPa 0.9 mm 9.2°
1
56%
08:00
13°
1009.4 hPa 0.9 mm 9.6°
0
56%
14:00
18°
1008.0 hPa 0.9 mm 9.4°
2
48%
20:00
17°
1007.6 hPa 1.8 mm 10.9°
2
44%
 03:51     22:56    Daglengte: 19:05 Maandag 01 Jul
02:00
10°
1009.6 hPa 1.2 mm 9.3°
1
42%
08:00
13°
1009.3 hPa 0.3 mm 10.1°
1
48%
14:00
19°
1008.2 hPa 0.7 mm 9.3°
2
56%
  CAPE Lifted Index Hail Supercell Tornado SRH 3km CL BTM PRES CL TOP PRES Swiss DWD icon SMHI TS
 03:43     22:57    Daglengte: 19:14 Vandaag
19:00 97 J/kg -0.3 K 0 % 0 % 0 % 0 m²/s² 0 0 2.97 3
20:00 192 J/kg -1.3 K 0 % 0 % 0 % 0 m²/s² 0 0 3.92 3
21:00 243 J/kg -1.9 K 0 % 0 % 0 % 0 m²/s² 0 0 4.61 3
22:00 177 J/kg -1.5 K 0 % 0 % 0 % 0 m²/s² 0 0 3.33 3
23:00 214 J/kg -1.5 K 0 % 0 % 0 % 0 m²/s² 0 0 2.94 3
 03:43     22:58    Daglengte: 19:15 Morgen
00:00 104 J/kg -1.5 K 0 % 0 % 0 % 0 m²/s² 0 0 2.73 3
01:00 14 J/kg -1.7 K 0 % 0 % 0 % 0 m²/s² 0 0 2.29 3
02:00 0 J/kg -1.6 K 0 % 0 % 0 % 0 m²/s² 0 0 2.6 3
03:00 0 J/kg -1.4 K 0 % 0 % 0 % 0 m²/s² 0 0 3.61 45
04:00 0 J/kg -0.9 K 0 % 0 % 0 % 0 m²/s² 0 0 5.13 45
05:00 0 J/kg -0.1 K 0 % 0 % 0 % 0 m²/s² 0 0 6.92 45
06:00 0 J/kg 0.2 K 0 % 0 % 0 % 0 m²/s² 0 0 7.22 45
07:00 1 J/kg 0.3 K 0 % 0 % 0 % 0 m²/s² 0 0 6.48 2
08:00 3 J/kg 0.9 K 0 % 0 % 0 % 0 m²/s² 0 0 6.27 2
09:00 49 J/kg 0.9 K 0 % 0 % 0 % 0 m²/s² 0 0 6 2
10:00 102 J/kg 0.2 K 0 % 0 % 0 % 0 m²/s² 0 0 5.3 2
11:00 186 J/kg -0.4 K 0 % 0 % 0 % 0 m²/s² 0 0 4.43 2
12:00 122 J/kg -0.3 K 0 % 0 % 0 % 0 m²/s² 0 0 4.2 1
13:00 23 J/kg 0.8 K 0 % 0 % 0 % 0 m²/s² 0 0 4.28 2
14:00 1 J/kg 2.6 K 0 % 0 % 0 % 0 m²/s² 0 0 5.39 1
15:00 3 J/kg 2.2 K 0 % 0 % 0 % 0 m²/s² 0 0 4.3 2
16:00 28 J/kg 0.9 K 0 % 0 % 0 % 0 m²/s² 0 0 2.55 1
17:00 197 J/kg -0.8 K 0 % 0 % 0 % 0 m²/s² 0 0 -0.2 3
18:00 398 J/kg -2.2 K 0 % 0 % 0 % 0 m²/s² 0 0 -1.18 0
19:00 542 J/kg -2.7 K 0 % 0 % 0 % 0 m²/s² 0 0 -1.62 3
20:00 572 J/kg -2.9 K 0 % 0 % 0 % 0 m²/s² 0 0 -1.58 2
21:00 527 J/kg -2.7 K 0 % 0 % 0 % 0 m²/s² 0 0 -1.05 2
22:00 377 J/kg -2.2 K 0 % 0 % 0 % 0 m²/s² 0 0 -0.1 2
23:00 154 J/kg -1.2 K 0 % 0 % 0 % 0 m²/s² 0 0 1.53 2
 03:43     22:58    Daglengte: 19:15 Dinsdag 18 Jun
00:00 0 J/kg 0.0 K 0 % 0 % 0 % 0 m²/s² 0 0 2.88 1
01:00 0 J/kg 1.3 K 0 % 0 % 0 % 0 m²/s² 0 0 4.18 0
02:00 0 J/kg 2.5 K 0 % 0 % 0 % 0 m²/s² 0 0 5.14 1
03:00 0 J/kg 2.9 K 0 % 0 % 0 % 0 m²/s² 0 0 5.3 2
04:00 0 J/kg 3.3 K 0 % 0 % 0 % 0 m²/s² 0 0 4.71 3
05:00 0 J/kg 3.2 K 0 % 0 % 0 % 0 m²/s² 0 0 4.19 3
06:00 0 J/kg 2.8 K 0 % 0 % 0 % 0 m²/s² 0 0 3.4 2
07:00 0 J/kg 2.8 K 0 % 0 % 0 % 0 m²/s² 0 0 3.1 3
08:00 0 J/kg 2.3 K 0 % 0 % 0 % 0 m²/s² 0 0 2.54 3
09:00 21 J/kg 1.8 K 0 % 0 % 0 % 0 m²/s² 0 0 2.04 3
10:00 193 J/kg 0.6 K 0 % 0 % 0 % 0 m²/s² 0 0 3.48 3
11:00 261 J/kg -0.3 K 0 % 0 % 0 % 0 m²/s² 0 0 3.21 80
12:00 400 J/kg -1.4 K 0 % 0 % 0 % 0 m²/s² 0 0 2.47 3
13:00 369 J/kg -1.4 K 0 % 0 % 0 % 0 m²/s² 0 0 2.59 3
14:00 361 J/kg -1.5 K 0 % 0 % 0 % 0 m²/s² 0 0 2.31 3
15:00 390 J/kg -1.6 K 0 % 0 % 0 % 0 m²/s² 0 0 1.64 3
16:00 392 J/kg -1.5 K 0 % 0 % 0 % 0 m²/s² 0 0 1.65 3
17:00 408 J/kg -1.6 K 0 % 0 % 0 % 0 m²/s² 0 0 0.86 3
18:00 445 J/kg -1.9 K 0 % 0 % 0 % 0 m²/s² 0 0 0.41 80
19:00 598 J/kg -2.6 K 0 % 0 % 0 % 0 m²/s² 0 0 -0.29 0
20:00 681 J/kg -3.1 K 0 % 0 % 0 % 0 m²/s² 0 0 -0.76 2
21:00 762 J/kg -3.4 K 0 % 0 % 0 % 0 m²/s² 0 0 -0.7 0
22:00 676 J/kg -3.2 K 0 % 0 % 0 % 0 m²/s² 0 0 -0.26 1
23:00 558 J/kg -2.7 K 0 % 0 % 0 % 0 m²/s² 0 0 0.66 2
 03:43     22:59    Daglengte: 19:16 Woensdag 19 Jun
00:00 358 J/kg -1.6 K 0 % 0 % 0 % 0 m²/s² 0 0 2.63 1
01:00 31 J/kg 1.4 K 0 % 0 % 0 % 0 m²/s² 0 0 6.08 0
02:00 1 J/kg 4.7 K 0 % 0 % 0 % 0 m²/s² 0 0 9.62 0
03:00 0 J/kg 6.9 K 0 % 0 % 0 % 0 m²/s² 0 0 11.85 0
04:00 0 J/kg 8.1 K 0 % 0 % 0 % 0 m²/s² 0 0 12.03 0
05:00 0 J/kg 8.7 K 0 % 0 % 0 % 0 m²/s² 0 0 11.16 0
06:00 0 J/kg 9.0 K 0 % 0 % 0 % 0 m²/s² 0 0 10.05 0
07:00 0 J/kg 8.3 K 0 % 0 % 0 % 0 m²/s² 0 0 9.02 0
08:00 0 J/kg 8.2 K 0 % 0 % 0 % 0 m²/s² 0 0 8.59 0
09:00 0 J/kg 7.7 K 0 % 0 % 0 % 0 m²/s² 0 0 8.42 0
10:00 0 J/kg 7.6 K 0 % 0 % 0 % 0 m²/s² 0 0 8.35 2
11:00 0 J/kg 6.7 K 0 % 0 % 0 % 0 m²/s² 0 0 7.63 2
12:00 0 J/kg 5.8 K 0 % 0 % 0 % 0 m²/s² 0 0 6.37 2
13:00 14 J/kg 4.4 K 0 % 0 % 0 % 0 m²/s² 0 0 4.61 2
14:00 6 J/kg 3.9 K 0 % 0 % 0 % 0 m²/s² 0 0 3.99 3
15:00 2 J/kg 4.0 K 0 % 0 % 0 % 0 m²/s² 0 0 4.57 2
16:00 0 J/kg 4.3 K 0 % 0 % 0 % 0 m²/s² 0 0 4.69 3
17:00 2 J/kg 4.9 K 0 % 0 % 0 % 0 m²/s² 0 0 5.08 3
18:00 0 J/kg 4.7 K 0 % 0 % 0 % 0 m²/s² 0 0 4.79 1
Temp Baro Wind Neerslag
  EWN Forecast EWN WRFDA DWD ICON FMI HIRLAM MET Norway GFS
 03:43     22:57    Daglengte: 19:14 Vandaag
20:00 15.5° 1012.7 hPa 1.5 m/s 0.0 mm 19.1° 1010.5 hPa 3.1 m/s 0.0 mm 15.3° 1012.2 hPa 2.2 m/s -1.7 mm 15.5° 1013.2 hPa 0.7 m/s 0.0 mm 16.2° 1012.8 hPa 1.4 m/s 0.0 mm 17.5° 1011.7 hPa 0.9 m/s
23:00 14.2° 1012.8 hPa 1.3 m/s 0.0 mm 16.1° 1010.6 hPa 1.9 m/s 0.2 mm 13.6° 1012.3 hPa 1.8 m/s 0.2 mm 14.1° 1013.6 hPa 1.2 m/s 0.0 mm 15.0° 1012.9 hPa 1.2 m/s 0.0 mm 13.5° 1012.0 hPa 1.0 m/s
 03:43     22:58    Daglengte: 19:15 Morgen
02:00 12.3° 1013.1 hPa 1.4 m/s 0.0 mm 12.0° 1010.5 hPa 2.1 m/s 0.4 mm 12.5° 1012.5 hPa 1.3 m/s 0.1 mm 14.1° 1013.4 hPa 1.6 m/s 0.0 mm 11.4° 1013.7 hPa 1.3 m/s 0.0 mm 13.4° 1012.2 hPa 1.2 m/s
05:00 12.1° 1012.6 hPa 1.2 m/s 0.0 mm 12.7° 1010.2 hPa 2.4 m/s 0.4 mm 12.2° 1012.5 hPa 1.0 m/s 0.1 mm 14.0° 1012.7 hPa 1.8 m/s 0.0 mm 10.5° 1013.5 hPa 0.8 m/s 0.0 mm 13.9° 1012.1 hPa 1.2 m/s
08:00 13.6° 1012.6 hPa 1.4 m/s 0.0 mm 16.0° 1011.1 hPa 3.1 m/s 0.4 mm 14.2° 1012.2 hPa 1.2 m/s 0.3 mm 14.0° 1011.8 hPa 2.1 m/s 0.0 mm 13.0° 1013.4 hPa 1.2 m/s 0.0 mm 15.4° 1011.9 hPa 1.4 m/s
11:00 17.7° 1012.4 hPa 1.6 m/s 0.0 mm 18.4° 1012.0 hPa 0.8 m/s 0.4 mm 17.1° 1012.1 hPa 1.1 m/s 0.7 mm 18.1° 1011.1 hPa 2.7 m/s 0.0 mm 18.0° 1012.9 hPa 1.4 m/s 0.0 mm 17.7° 1011.6 hPa 2.2 m/s
14:00 19.5° 1012.1 hPa 3.2 m/s 0.0 mm 21.2° 1011.5 hPa 3.7 m/s 0.4 mm 19.4° 1012.2 hPa 3.3 m/s 0.0 mm 18.4° 1010.7 hPa 3.0 m/s 0.0 mm 21.0° 1012.3 hPa 3.4 m/s 0.0 mm 22.8° 1010.7 hPa 3.9 m/s
17:00 20.4° 1011.4 hPa 4.1 m/s 0.0 mm 19.9° 1011.4 hPa 5.7 m/s 0.5 mm 20.5° 1010.7 hPa 3.5 m/s 0.0 mm 20.6° 1009.3 hPa 5.4 m/s 0.0 mm 21.1° 1011.8 hPa 4.1 m/s 0.0 mm 22.1° 1010.3 hPa 5.2 m/s
20:00 17.9° 1010.9 hPa 3.6 m/s 0.0 mm 18.8° 1010.4 hPa 5.7 m/s 1.7 mm 18.2° 1010.2 hPa 4.9 m/s 0.0 mm 15.5° 1010.0 hPa 3.6 m/s 0.0 mm 19.6° 1011.5 hPa 3.3 m/s 0.0 mm 19.6° 1009.5 hPa 4.2 m/s
23:00 14.0° 1011.5 hPa 2.7 m/s 0.0 mm 13.8° 1010.9 hPa 3.1 m/s 2.4 mm 13.8° 1010.9 hPa 1.8 m/s 0.0 mm 13.0° 1010.9 hPa 2.5 m/s 0.0 mm 16.0° 1012.1 hPa 2.8 m/s 0.0 mm 13.4° 1010.9 hPa 2.3 m/s
 03:43     22:58    Daglengte: 19:15 Dinsdag 18 Jun
02:00 12.2° 1012.1 hPa 2.3 m/s 0.0 mm 10.4° 1011.5 hPa 2.5 m/s 2.4 mm 11.7° 1011.8 hPa 1.4 m/s 0.0 mm 10.6° 1011.4 hPa 1.3 m/s 0.0 mm 14.6° 1012.4 hPa 2.4 m/s 0.0 mm 10.9° 1011.3 hPa 2.0 m/s
05:00 11.1° 1012.3 hPa 2.1 m/s 0.0 mm 10.8° 1011.6 hPa 2.8 m/s 2.4 mm 10.8° 1012.0 hPa 1.7 m/s 0.0 mm 8.8° 1012.0 hPa 1.3 m/s 0.0 mm 12.7° 1012.4 hPa 2.2 m/s 0.0 mm 10.4° 1011.5 hPa 2.1 m/s
08:00 12.8° 1012.1 hPa 2.9 m/s 0.0 mm 12.9° 1011.4 hPa 3.8 m/s 2.6 mm 12.8° 1011.6 hPa 2.8 m/s 0.0 mm 12.2° 1011.7 hPa 1.8 m/s 0.0 mm 13.7° 1012.3 hPa 3.4 m/s 0.0 mm 13.6° 1010.7 hPa 3.8 m/s
11:00 15.9° 1011.6 hPa 3.4 m/s 0.7 mm 16.3° 1011.2 hPa 4.3 m/s 4.7 mm 14.6° 1011.2 hPa 2.2 m/s 0.2 mm 17.4° 1011.3 hPa 2.8 m/s 0.0 mm 16.4° 1012.1 hPa 3.5 m/s 0.0 mm 17.2° 1010.4 hPa 4.9 m/s
14:00 17.1° 1010.7 hPa 3.8 m/s 0.0 mm 18.1° 1010.1 hPa 4.7 m/s 7.5 mm 16.8° 1010.1 hPa 4.4 m/s 0.1 mm 18.5° 1010.9 hPa 3.7 m/s 0.0 mm 17.3° 1011.2 hPa 3.7 m/s 0.0 mm 19.4° 1009.1 hPa 5.6 m/s
17:00 17.7° 1009.4 hPa 4.1 m/s 1.0 mm 19.9° 1009.6 hPa 6.2 m/s 10.6 mm 16.8° 1008.8 hPa 5.1 m/s 0.3 mm 18.3° 1009.8 hPa 3.9 m/s 0.0 mm 20.1° 1008.5 hPa 4.6 m/s
20:00 17.3° 1008.4 hPa 3.7 m/s 2.1 mm 18.4° 1008.3 hPa 4.6 m/s 13.2 mm 15.7° 1008.0 hPa 3.7 m/s 0.5 mm 18.0° 1009.2 hPa 3.7 m/s 0.0 mm 17.8° 1007.7 hPa 2.7 m/s
23:00 13.7° 1009.0 hPa 2.0 m/s 0.0 mm 14.1° 1008.8 hPa 2.9 m/s 15.0 mm 12.7° 1008.6 hPa 1.6 m/s 0.0 mm 14.3° 1009.8 hPa 1.9 m/s 0.0 mm 12.7° 1009.1 hPa 2.7 m/s
 03:43     22:59    Daglengte: 19:16 Woensdag 19 Jun
02:00 10.7° 1009.6 hPa 1.6 m/s 0.0 mm 11.4° 1009.2 hPa 2.2 m/s 15.2 mm 10.0° 1009.4 hPa 1.4 m/s 0.0 mm 11.0° 1010.7 hPa 1.7 m/s 0.0 mm 9.3° 1009.7 hPa 2.2 m/s
05:00 9.3° 1010.2 hPa 1.6 m/s 0.0 mm 12.1° 1009.8 hPa 2.1 m/s 15.2 mm 9.4° 1010.0 hPa 1.2 m/s 0.0 mm 9.4° 1011.2 hPa 1.6 m/s 0.0 mm 8.1° 1010.6 hPa 0.5 m/s
08:00 12.4° 1010.5 hPa 0.8 m/s 0.0 mm 14.9° 1009.7 hPa 1.7 m/s 15.2 mm 13.0° 1010.2 hPa 1.4 m/s 0.0 mm 12.3° 1011.7 hPa 0.7 m/s 0.0 mm 14.1° 1010.2 hPa 0.9 m/s
11:00 15.8° 1010.2 hPa 1.8 m/s 0.0 mm 17.4° 1009.8 hPa 2.4 m/s 15.2 mm 15.9° 1010.1 hPa 1.7 m/s 0.0 mm 15.8° 1011.0 hPa 1.8 m/s 18.9° 1010.1 hPa 1.9 m/s
14:00 18.6° 1009.5 hPa 2.9 m/s 0.0 mm 18.8° 1008.5 hPa 4.7 m/s 15.2 mm 18.6° 1009.4 hPa 2.5 m/s 0.0 mm 19.3° 1010.3 hPa 2.9 m/s 20.5° 1008.6 hPa 2.9 m/s
17:00 18.2° 1008.9 hPa 2.6 m/s 0.0 mm 15.7° 1008.5 hPa 2.3 m/s 15.9 mm 18.9° 1008.4 hPa 2.9 m/s 0.0 mm 18.5° 1009.3 hPa 2.6 m/s 21.7° 1007.7 hPa 3.2 m/s
20:00 17.3° 1007.9 hPa 2.3 m/s 0.0 mm 13.8° 1005.6 hPa 1.6 m/s 26.9 mm 18.2° 1007.9 hPa 3.0 m/s 0.0 mm 17.6° 1008.3 hPa 2.3 m/s 20.2° 1006.7 hPa 2.2 m/s
23:00 14.9° 1007.6 hPa 2.0 m/s 1.4 mm 14.9° 1007.6 hPa 2.1 m/s 14.4° 1007.4 hPa 1.4 m/s 1.4 mm
 03:43     22:59    Daglengte: 19:16 Donderdag 20 Jun
02:00 13.5° 1007.1 hPa 1.9 m/s 1.4 mm 13.6° 1007.2 hPa 2.0 m/s 12.9° 1006.0 hPa 1.3 m/s 1.4 mm
05:00 13.9° 1005.4 hPa 2.1 m/s 1.6 mm 14.1° 1005.5 hPa 2.2 m/s 12.0° 1005.3 hPa 1.4 m/s 1.6 mm
08:00 14.3° 1003.7 hPa 2.3 m/s 3.0 mm 14.5° 1003.7 hPa 2.4 m/s 12.5° 1003.8 hPa 0.7 m/s 3.0 mm
11:00 16.2° 1003.1 hPa 2.9 m/s 7.9 mm 16.5° 1003.2 hPa 3.0 m/s 13.4° 1003.1 hPa 1.3 m/s 7.9 mm
14:00 18.2° 1002.5 hPa 3.6 m/s 8.1 mm 18.5° 1002.6 hPa 3.7 m/s 15.0° 1001.8 hPa 2.3 m/s 8.1 mm
17:00 18.4° 1002.6 hPa 3.1 m/s 8.4 mm 18.4° 1002.7 hPa 3.0 m/s 17.8° 1000.9 hPa 3.1 m/s 8.4 mm
20:00 18.3° 1002.6 hPa 2.4 m/s 9.6 mm 18.4° 1002.8 hPa 2.4 m/s 17.4° 1000.6 hPa 2.8 m/s 9.6 mm
23:00 15.7° 1003.9 hPa 2.1 m/s 10.3 mm 15.8° 1004.0 hPa 2.0 m/s 14.4° 1001.8 hPa 2.6 m/s 10.3 mm
 03:43     22:59    Daglengte: 19:16 Vrijdag 21 Jun
02:00 13.3° 1005.1 hPa 1.6 m/s 10.3 mm 13.2° 1005.3 hPa 1.6 m/s 13.9° 1002.4 hPa 1.8 m/s 10.3 mm
05:00 13.8° 1005.8 hPa 1.7 m/s 10.4 mm 13.8° 1006.0 hPa 1.6 m/s 13.8° 1003.4 hPa 1.8 m/s 10.4 mm
08:00 14.3° 1006.5 hPa 1.8 m/s 10.6 mm 14.3° 1006.7 hPa 1.7 m/s 14.9° 1003.7 hPa 2.4 m/s 10.6 mm
11:00 16.2° 1006.3 hPa 3.0 m/s 11.4 mm 16.2° 1006.5 hPa 2.9 m/s 15.6° 1004.7 hPa 3.6 m/s 11.4 mm
14:00 18.3° 1006.1 hPa 4.0 m/s 12.3 mm 18.2° 1006.2 hPa 4.1 m/s 19.6° 1005.2 hPa 3.5 m/s 12.3 mm
17:00 17.3° 1006.4 hPa 3.6 m/s 12.6 mm 16.9° 1006.5 hPa 3.4 m/s 21.4° 1005.3 hPa 5.4 m/s 12.6 mm
20:00 16.0° 1006.6 hPa 2.7 m/s 12.6 mm 15.7° 1006.7 hPa 2.7 m/s 18.9° 1006.0 hPa 3.2 m/s 12.6 mm
23:00 12.7° 1008.4 hPa 2.5 m/s 12.7 mm 12.8° 1008.5 hPa 2.5 m/s 12.7° 1007.9 hPa 3.1 m/s 12.7 mm
 03:44     23:00    Daglengte: 19:16 Zaterdag 22 Jun
02:00 9.7° 1010.2 hPa 2.1 m/s 12.9 mm 9.8° 1010.3 hPa 2.3 m/s 8.6° 1008.7 hPa 0.2 m/s 12.9 mm
05:00 11.0° 1010.7 hPa 2.6 m/s 13.6 mm 11.2° 1010.9 hPa 2.8 m/s 8.2° 1008.9 hPa 0.8 m/s 13.6 mm
08:00 12.7° 1011.3 hPa 3.0 m/s 13.8 mm 12.7° 1011.5 hPa 3.2 m/s 12.2° 1009.3 hPa 1.3 m/s 13.8 mm
11:00 15.0° 1012.0 hPa 3.5 m/s 16.0 mm 15.2° 1012.2 hPa 3.6 m/s 13.8° 1010.0 hPa 2.0 m/s 16.0 mm
14:00 17.5° 1012.8 hPa 4.1 m/s 18.0 mm 17.6° 1012.9 hPa 4.1 m/s 16.2° 1012.0 hPa 4.6 m/s 18.0 mm
17:00 16.7° 1013.9 hPa 3.6 m/s 20.4 mm 16.9° 1013.9 hPa 3.8 m/s 15.1° 1013.7 hPa 1.9 m/s 20.4 mm
20:00 16.0° 1014.9 hPa 3.3 m/s 21.1 mm 16.1° 1014.9 hPa 3.5 m/s 15.4° 1015.0 hPa 1.0 m/s 21.1 mm
23:00 12.2° 1017.2 hPa 2.9 m/s 21.3 mm 12.6° 1017.2 hPa 3.0 m/s 8.8° 1017.8 hPa 0.9 m/s 21.3 mm
 03:44     23:00    Daglengte: 19:16 Zondag 23 Jun
02:00 8.8° 1019.6 hPa 2.4 m/s 21.3 mm 9.0° 1019.5 hPa 2.6 m/s 7.1° 1020.2 hPa 0.2 m/s 21.3 mm
05:00 10.7° 1020.6 hPa 2.2 m/s 21.3 mm 11.0° 1020.5 hPa 2.3 m/s 7.0° 1021.2 hPa 0.6 m/s 21.3 mm
08:00 12.9° 1021.6 hPa 2.0 m/s 21.3 mm 13.0° 1021.6 hPa 2.0 m/s 12.3° 1021.2 hPa 1.6 m/s 21.3 mm
11:00 15.4° 1021.5 hPa 2.2 m/s 21.3 mm 15.4° 1021.6 hPa 2.1 m/s 16.0° 1020.3 hPa 2.3 m/s 21.3 mm
14:00 17.8° 1021.4 hPa 2.3 m/s 21.4 mm 17.8° 1021.6 hPa 2.3 m/s 18.3° 1019.6 hPa 1.8 m/s 21.4 mm
17:00 17.6° 1021.4 hPa 2.0 m/s 21.4 mm 17.4° 1021.7 hPa 2.0 m/s 19.5° 1018.6 hPa 1.5 m/s 21.4 mm
20:00 17.1° 1021.4 hPa 1.8 m/s 21.4 mm 17.0° 1021.7 hPa 1.8 m/s 18.0° 1018.7 hPa 1.7 m/s 21.4 mm
 03:45     23:00    Daglengte: 19:15 Maandag 24 Jun
02:00 10.4° 1023.2 hPa 1.6 m/s 21.4 mm 10.6° 1023.4 hPa 1.6 m/s 8.7° 1021.4 hPa 1.0 m/s 21.4 mm
08:00 13.6° 1024.8 hPa 1.7 m/s 21.4 mm 13.8° 1025.1 hPa 1.7 m/s 12.0° 1020.9 hPa 2.2 m/s 21.4 mm
14:00 18.6° 1024.0 hPa 2.2 m/s 21.4 mm 18.6° 1024.5 hPa 2.1 m/s 19.1° 1018.6 hPa 3.5 m/s 21.4 mm
20:00 18.0° 1023.3 hPa 1.9 m/s 21.4 mm 18.0° 1023.8 hPa 1.9 m/s 17.6° 1017.3 hPa 2.3 m/s 21.4 mm
 03:45     22:59    Daglengte: 19:14 Dinsdag 25 Jun
02:00 11.7° 1025.4 hPa 1.4 m/s 21.8 mm 11.7° 1026.0 hPa 1.5 m/s 11.5° 1018.5 hPa 0.8 m/s 21.8 mm
08:00 14.6° 1024.8 hPa 1.6 m/s 24.9 mm 14.9° 1025.6 hPa 1.5 m/s 10.9° 1016.2 hPa 2.5 m/s 24.9 mm
14:00 18.3° 1023.3 hPa 2.3 m/s 38.8 mm 19.0° 1024.1 hPa 2.3 m/s 10.5° 1014.3 hPa 2.1 m/s 38.8 mm
20:00 17.2° 1020.3 hPa 1.8 m/s 40.8 mm 17.6° 1021.2 hPa 1.8 m/s 12.3° 1010.0 hPa 2.0 m/s 40.8 mm
 03:46     22:59    Daglengte: 19:13 Woensdag 26 Jun
02:00 12.3° 1009.0 hPa 1.6 m/s 40.8 mm 12.3° 1009.0 hPa 1.6 m/s 40.8 mm
08:00 12.7° 1007.6 hPa 2.5 m/s 41.1 mm 12.7° 1007.6 hPa 2.5 m/s 41.1 mm
14:00 16.9° 1012.7 hPa 1.2 m/s 1.0 mm
20:00 17.0° 1011.8 hPa 0.9 m/s 0.5 mm
 03:47     22:59    Daglengte: 19:12 Donderdag 27 Jun
02:00 10.0° 1013.1 hPa 1.2 m/s 0.7 mm
08:00 12.7° 1012.2 hPa 1.5 m/s 0.7 mm
14:00 17.8° 1010.4 hPa 0.5 m/s 0.7 mm
20:00 17.3° 1009.4 hPa 0.8 m/s 0.8 mm
 03:48     22:58    Daglengte: 19:10 Vrijdag 28 Jun
02:00 10.2° 1010.9 hPa 0.8 m/s 0.6 mm
08:00 13.0° 1010.5 hPa 1.0 m/s 0.4 mm
14:00 17.8° 1008.8 hPa 0.9 m/s 1.1 mm
20:00 17.2° 1007.9 hPa 1.2 m/s 1.1 mm
 03:48     22:58    Daglengte: 19:10 Zaterdag 29 Jun
02:00 10.5° 1009.4 hPa 0.5 m/s 1.1 mm
08:00 12.5° 1008.7 hPa 0.6 m/s 1.0 mm
14:00 17.4° 1007.7 hPa 1.6 m/s 1.4 mm
20:00 16.8° 1007.9 hPa 1.8 m/s 1.0 mm
 03:50     22:57    Daglengte: 19:07 Zondag 30 Jun
02:00 10.7° 1009.8 hPa 0.7 m/s 0.9 mm
08:00 12.7° 1009.4 hPa 0.4 m/s 0.9 mm
14:00 18.2° 1008.0 hPa 2.1 m/s 0.9 mm
20:00 17.5° 1007.6 hPa 2.4 m/s 1.8 mm
 03:51     22:56    Daglengte: 19:05 Maandag 01 Jul
02:00 10.4° 1009.6 hPa 0.7 m/s 1.2 mm
08:00 12.9° 1009.3 hPa 0.6 m/s 0.3 mm
14:00 18.7° 1008.2 hPa 2.4 m/s 0.7 mm
FMI Hirlam - 7.5 km EWN WRFDA - 12 km DWD ICON - 7 km GFS - 25 km Basiskaart






























































Updatetijd (Europe/Amsterdam) Resolutie Lengte Stap
FMI Hirlam 13:00, 19:00, 01:00, 07:00 7.5 km 49h 1h
EWN WRFDA 16:15, 22:15, 04:15, 10:15 12 km 73h 1h
DWD ICON 18:00, 00:00, 06:00, 12:00 7 km 75h 1h
GFS 14:30, 20:30, 02:30, 08:30 25 km 237h 3h
30+ mm
25-30 mm
20-25 mm
15-20 mm
10-15 mm
6-10 mm
4-6 mm
2-4 mm
1-2 mm
0.5-1 mm
0.2-0.5 mm
0.1-0.2 mm
30+ mm
25-30 mm
20-25 mm
15-20 mm
10-15 mm
6-10 mm
4-6 mm
2-4 mm
1-2 mm
0.5-1 mm
0.2-0.5 mm
0.1-0.2 mm
Sneeuwval
Natte sneeuw
Hagel
Vorst
30+ mm
25-30 mm
20-25 mm
15-20 mm
10-15 mm
6-10 mm
4-6 mm
2-4 mm
1-2 mm
0.5-1 mm
0.2-0.5 mm
0.1-0.2 mm
Sneeuwval
Natte sneeuw
Hagel
Vorst
Onweer
50 mm
40 mm
30 mm
26 mm
22 mm
18 mm
14 mm
10 mm
9 mm
8 mm
7 mm
6 mm
5 mm
4.5 mm
4 mm
3.5 mm
3 mm
2.5 mm
2 mm
1.5 mm
1 mm
0.8 mm
0.6 mm
0.4 mm
0.2 mm
0.05 mm
35°
30°
25°
20°
15°
10°
-5°
-10°
-15°
-20°
-25°
-30°
-35°
33> m/s
29 m/s
25 m/s
21 m/s
17 m/s
14 m/s
11 m/s
8 m/s
5 m/s
3 m/s
0 m/s
2600 J/kg
2400 J/kg
2200 J/kg
2000 J/kg
1800 J/kg
1600 J/kg
1400 J/kg
1200 J/kg
1000 J/kg
800 J/kg
600 J/kg
400 J/kg
200 J/kg
70 dBZ
65 dBZ
60 dBZ
55 dBZ
50 dBZ
45 dBZ
40 dBZ
35 dBZ
30 dBZ
25 dBZ
20 dBZ
15 dBZ
10 dBZ
5 dBZ
-1 K
-2 K
-3 K
-4 K
-5 K
-6 K
-7 K
-8 K
-9 K
950 m²/s²
900 m²/s²
850 m²/s²
800 m²/s²
750 m²/s²
700 m²/s²
650 m²/s²
600 m²/s²
550 m²/s²
500 m²/s²
450 m²/s²
400 m²/s²
350 m²/s²
300 m²/s²
250 m²/s²
200 m²/s²
150 m²/s²
100 m²/s²
46 m/s
44 m/s
42 m/s
40 m/s
38 m/s
36 m/s
34 m/s
32 m/s
30 m/s
28 m/s
26 m/s
24 m/s
22 m/s
20 m/s
16 m/s
12 m/s
8 m/s
4 m/s
30 m/s
28 m/s
26 m/s
24 m/s
22 m/s
20 m/s
18 m/s
16 m/s
14 m/s
12 m/s
10 m/s
8 m/s
6 m/s
4 m/s
2 m/s
3.0
2.8
2.6
2.4
2.2
2.0
1.8
1.6
1.4
1.2
1.0
0.8
0.6
0.4
0.2
15
14
13
12
11
10
9
8
7
6
5
4
3
2
1
90%
80%
70%
60%
50%
40%
30%
20%
10%
42
40
38
36
34
32
30
28
26
24
22
20
18
16
14
12
90+ cm
80-90 cm
70-80 cm
60-70 cm
50-60 cm
40-50 cm
30-40 cm
20-30 cm
10-20 cm
1-10 cm
Sneeuwval
Natte sneeuw
Regen
>120 mm
115 mm
110 mm
105 mm
100 mm
95 mm
90 mm
85 mm
80 mm
75 mm
70 mm
65 mm
60 mm
55 mm
50 mm
45 mm
45 mm
40 mm
35 mm
30 mm
25 mm
20 mm
15 mm
10 mm
5 mm
0.1 mm
960 hPa
880 hPa
800 hPa
720 hPa
640 hPa
560 hPa
584 gpdm
568 gpdm
552 gpdm
536 gpdm